Year,Month,Day,Hour,Minute,Value (Times are PST for temperature in C)
2012,08,17,00,00,21.70
2012,08,17,00,01,21.60
2012,08,17,00,02,21.60
2012,08,17,00,03,21.60
2012,08,17,00,04,21.60
2012,08,17,00,05,21.50
2012,08,17,00,06,21.50
2012,08,17,00,07,21.50
2012,08,17,00,08,21.40
2012,08,17,00,09,21.40
2012,08,17,00,10,21.40
2012,08,17,00,11,21.40
2012,08,17,00,12,21.40
2012,08,17,00,13,21.40
2012,08,17,00,14,21.40
2012,08,17,00,15,21.40
2012,08,17,00,16,21.40
2012,08,17,00,17,21.40
2012,08,17,00,18,21.50
2012,08,17,00,19,21.50
2012,08,17,00,20,21.50
2012,08,17,00,21,21.60
2012,08,17,00,22,21.60
2012,08,17,00,23,21.60
2012,08,17,00,24,21.60
2012,08,17,00,25,21.60
2012,08,17,00,26,21.60
2012,08,17,00,27,21.70
2012,08,17,00,28,21.70
2012,08,17,00,29,21.70
2012,08,17,00,30,21.70
2012,08,17,00,31,21.70
2012,08,17,00,32,21.70
2012,08,17,00,33,21.70
2012,08,17,00,34,21.70
2012,08,17,00,35,21.70
2012,08,17,00,36,21.70
2012,08,17,00,37,21.70
2012,08,17,00,38,21.70
2012,08,17,00,39,21.70
2012,08,17,00,40,21.70
2012,08,17,00,41,21.70
2012,08,17,00,42,21.70
2012,08,17,00,43,21.70
2012,08,17,00,44,21.70
2012,08,17,00,45,21.70
2012,08,17,00,46,21.70
2012,08,17,00,47,21.70
2012,08,17,00,48,21.70
2012,08,17,00,49,21.60
2012,08,17,00,50,21.60
2012,08,17,00,51,21.60
2012,08,17,00,52,21.60
2012,08,17,00,53,21.50
2012,08,17,00,54,21.50
2012,08,17,00,55,21.40
2012,08,17,00,56,21.40
2012,08,17,00,57,21.40
2012,08,17,00,58,21.30
2012,08,17,00,59,21.30
2012,08,17,01,00,21.30
2012,08,17,01,01,21.20
2012,08,17,01,02,21.20
2012,08,17,01,03,21.20
2012,08,17,01,04,21.10
2012,08,17,01,05,21.10
2012,08,17,01,06,21.10
2012,08,17,01,07,21.10
2012,08,17,01,08,21.00
2012,08,17,01,09,21.00
2012,08,17,01,10,20.90
2012,08,17,01,11,20.90
2012,08,17,01,12,20.90
2012,08,17,01,13,20.80
2012,08,17,01,14,20.80
2012,08,17,01,15,20.70
2012,08,17,01,16,20.70
2012,08,17,01,17,20.70
2012,08,17,01,18,20.60
2012,08,17,01,19,20.60
2012,08,17,01,20,20.50
2012,08,17,01,21,20.50
2012,08,17,01,22,20.50
2012,08,17,01,23,20.40
2012,08,17,01,24,20.40
2012,08,17,01,25,20.40
2012,08,17,01,26,20.40
2012,08,17,01,27,20.30
2012,08,17,01,28,20.30
2012,08,17,01,29,20.30
2012,08,17,01,30,20.30
2012,08,17,01,31,20.30
2012,08,17,01,32,20.20
2012,08,17,01,33,20.20
2012,08,17,01,34,20.20
2012,08,17,01,35,20.20
2012,08,17,01,36,20.10
2012,08,17,01,37,20.10
2012,08,17,01,38,20.10
2012,08,17,01,39,20.10
2012,08,17,01,40,20.00
2012,08,17,01,41,20.00
2012,08,17,01,42,20.00
2012,08,17,01,43,20.00
2012,08,17,01,44,20.00
2012,08,17,01,45,20.00
2012,08,17,01,46,20.00
2012,08,17,01,47,20.00
2012,08,17,01,48,19.90
2012,08,17,01,49,19.90
2012,08,17,01,50,19.90
2012,08,17,01,51,19.90
2012,08,17,01,52,19.80
2012,08,17,01,53,19.80
2012,08,17,01,54,19.80
2012,08,17,01,55,19.80
2012,08,17,01,56,19.80
2012,08,17,01,57,19.70
2012,08,17,01,58,19.70
2012,08,17,01,59,19.70
2012,08,17,02,00,19.70
2012,08,17,02,01,19.60
2012,08,17,02,02,19.60
2012,08,17,02,03,19.60
2012,08,17,02,04,19.60
2012,08,17,02,05,19.60
2012,08,17,02,06,19.50
2012,08,17,02,07,19.50
2012,08,17,02,08,19.50
2012,08,17,02,09,19.50
2012,08,17,02,10,19.50
2012,08,17,02,11,19.50
2012,08,17,02,12,19.50
2012,08,17,02,13,19.50
2012,08,17,02,14,19.50
2012,08,17,02,15,19.50
2012,08,17,02,16,19.40
2012,08,17,02,17,19.40
2012,08,17,02,18,19.40
2012,08,17,02,19,19.40
2012,08,17,02,20,19.40
2012,08,17,02,21,19.40
2012,08,17,02,22,19.40
2012,08,17,02,23,19.30
2012,08,17,02,24,19.30
2012,08,17,02,25,19.30
2012,08,17,02,26,19.30
2012,08,17,02,27,19.20
2012,08,17,02,28,19.20
2012,08,17,02,29,19.20
2012,08,17,02,30,19.20
2012,08,17,02,31,19.20
2012,08,17,02,32,19.20
2012,08,17,02,33,19.10
2012,08,17,02,34,19.10
2012,08,17,02,35,19.10
2012,08,17,02,36,19.10
2012,08,17,02,37,19.10
2012,08,17,02,38,19.00
2012,08,17,02,39,19.00
2012,08,17,02,40,19.00
2012,08,17,02,41,18.90
2012,08,17,02,42,18.90
2012,08,17,02,43,18.90
2012,08,17,02,44,18.90
2012,08,17,02,45,18.90
2012,08,17,02,46,18.90
2012,08,17,02,47,18.90
2012,08,17,02,48,18.80
2012,08,17,02,49,18.80
2012,08,17,02,50,18.80
2012,08,17,02,51,18.80
2012,08,17,02,52,18.80
2012,08,17,02,53,18.80
2012,08,17,02,54,18.80
2012,08,17,02,55,18.70
2012,08,17,02,56,18.70
2012,08,17,02,57,18.70
2012,08,17,02,58,18.70
2012,08,17,02,59,18.70
2012,08,17,03,00,18.70
2012,08,17,03,01,18.70
2012,08,17,03,02,18.70
2012,08,17,03,03,18.60
2012,08,17,03,04,18.60
2012,08,17,03,05,18.60
2012,08,17,03,06,18.60
2012,08,17,03,07,18.60
2012,08,17,03,08,18.60
2012,08,17,03,09,18.60
2012,08,17,03,10,18.60
2012,08,17,03,11,18.60
2012,08,17,03,12,18.50
2012,08,17,03,13,18.50
2012,08,17,03,14,18.50
2012,08,17,03,15,18.50
2012,08,17,03,16,18.40
2012,08,17,03,17,18.40
2012,08,17,03,18,18.40
2012,08,17,03,19,18.50
2012,08,17,03,20,18.50
2012,08,17,03,21,18.50
2012,08,17,03,22,18.50
2012,08,17,03,23,18.50
2012,08,17,03,24,18.50
2012,08,17,03,25,18.50
2012,08,17,03,26,18.50
2012,08,17,03,27,18.50
2012,08,17,03,28,18.50
2012,08,17,03,29,18.40
2012,08,17,03,30,18.40
2012,08,17,03,31,18.40
2012,08,17,03,32,18.40
2012,08,17,03,33,18.40
2012,08,17,03,34,18.30
2012,08,17,03,35,18.30
2012,08,17,03,36,18.30
2012,08,17,03,37,18.30
2012,08,17,03,38,18.30
2012,08,17,03,39,18.30
2012,08,17,03,40,18.20
2012,08,17,03,41,18.20
2012,08,17,03,42,18.20
2012,08,17,03,43,18.20
2012,08,17,03,44,18.20
2012,08,17,03,45,18.20
2012,08,17,03,46,18.20
2012,08,17,03,47,18.20
2012,08,17,03,48,18.20
2012,08,17,03,49,18.10
2012,08,17,03,50,18.10
2012,08,17,03,51,18.10
2012,08,17,03,52,18.10
2012,08,17,03,53,18.10
2012,08,17,03,54,18.10
2012,08,17,03,55,18.00
2012,08,17,03,56,18.00
2012,08,17,03,57,18.00
2012,08,17,03,58,18.00
2012,08,17,03,59,18.00
2012,08,17,04,00,17.90
2012,08,17,04,01,17.90
2012,08,17,04,02,17.90
2012,08,17,04,03,17.90
2012,08,17,04,04,17.90
2012,08,17,04,05,17.90
2012,08,17,04,06,17.90
2012,08,17,04,07,17.90
2012,08,17,04,08,17.90
2012,08,17,04,09,17.90
2012,08,17,04,10,17.90
2012,08,17,04,11,17.90
2012,08,17,04,12,17.90
2012,08,17,04,13,17.90
2012,08,17,04,14,17.90
2012,08,17,04,15,17.90
2012,08,17,04,16,17.90
2012,08,17,04,17,17.90
2012,08,17,04,18,17.90
2012,08,17,04,19,17.90
2012,08,17,04,20,17.90
2012,08,17,04,21,17.90
2012,08,17,04,22,17.90
2012,08,17,04,23,17.80
2012,08,17,04,24,17.80
2012,08,17,04,25,17.80
2012,08,17,04,26,17.80
2012,08,17,04,27,17.80
2012,08,17,04,28,17.80
2012,08,17,04,29,17.80
2012,08,17,04,30,17.80
2012,08,17,04,31,17.70
2012,08,17,04,32,17.70
2012,08,17,04,33,17.70
2012,08,17,04,34,17.70
2012,08,17,04,35,17.60
2012,08,17,04,36,17.60
2012,08,17,04,37,17.60
2012,08,17,04,38,17.60
2012,08,17,04,39,17.60
2012,08,17,04,40,17.50
2012,08,17,04,41,17.50
2012,08,17,04,42,17.50
2012,08,17,04,43,17.50
2012,08,17,04,44,17.50
2012,08,17,04,45,17.50
2012,08,17,04,46,17.50
2012,08,17,04,47,17.50
2012,08,17,04,48,17.60
2012,08,17,04,49,17.60
2012,08,17,04,50,17.60
2012,08,17,04,51,17.60
2012,08,17,04,52,17.60
2012,08,17,04,53,17.70
2012,08,17,04,54,17.70
2012,08,17,04,55,17.70
2012,08,17,04,56,17.70
2012,08,17,04,57,17.70
2012,08,17,04,58,17.70
2012,08,17,04,59,17.60
2012,08,17,05,00,17.60
2012,08,17,05,01,17.60
2012,08,17,05,02,17.60
2012,08,17,05,03,17.60
2012,08,17,05,04,17.60
2012,08,17,05,05,17.60
2012,08,17,05,06,17.60
2012,08,17,05,07,17.60
2012,08,17,05,08,17.60
2012,08,17,05,09,17.60
2012,08,17,05,10,17.70
2012,08,17,05,11,17.70
2012,08,17,05,12,17.70
2012,08,17,05,13,17.70
2012,08,17,05,14,17.70
2012,08,17,05,15,17.70
2012,08,17,05,16,17.70
2012,08,17,05,17,17.70
2012,08,17,05,18,17.70
2012,08,17,05,19,17.70
2012,08,17,05,20,17.70
2012,08,17,05,21,17.70
2012,08,17,05,22,17.70
2012,08,17,05,23,17.80
2012,08,17,05,24,17.80
2012,08,17,05,25,17.80
2012,08,17,05,26,17.80
2012,08,17,05,27,17.80
2012,08,17,05,28,17.80
2012,08,17,05,29,17.80
2012,08,17,05,30,17.80
2012,08,17,05,31,17.80
2012,08,17,05,32,17.80
2012,08,17,05,33,17.70
2012,08,17,05,34,17.70
2012,08,17,05,35,17.70
2012,08,17,05,36,17.70
2012,08,17,05,37,17.70
2012,08,17,05,38,17.70
2012,08,17,05,39,17.70
2012,08,17,05,40,17.60
2012,08,17,05,41,17.50
2012,08,17,05,42,17.50
2012,08,17,05,43,17.40
2012,08,17,05,44,17.40
2012,08,17,05,45,17.40
2012,08,17,05,46,17.30
2012,08,17,05,47,17.30
2012,08,17,05,48,17.30
2012,08,17,05,49,17.30
2012,08,17,05,50,17.30
2012,08,17,05,51,17.30
2012,08,17,05,52,17.20
2012,08,17,05,53,17.20
2012,08,17,05,54,17.20
2012,08,17,05,55,17.20
2012,08,17,05,56,17.20
2012,08,17,05,57,17.20
2012,08,17,05,58,17.20
2012,08,17,05,59,17.20
2012,08,17,06,00,17.10
2012,08,17,06,01,17.10
2012,08,17,06,02,17.10
2012,08,17,06,03,17.10
2012,08,17,06,04,17.00
2012,08,17,06,05,17.00
2012,08,17,06,06,17.00
2012,08,17,06,07,16.90
2012,08,17,06,08,16.90
2012,08,17,06,09,16.90
2012,08,17,06,10,16.90
2012,08,17,06,11,16.90
2012,08,17,06,12,16.80
2012,08,17,06,13,16.80
2012,08,17,06,14,16.80
2012,08,17,06,15,16.80
2012,08,17,06,16,16.80
2012,08,17,06,17,16.80
2012,08,17,06,18,16.70
2012,08,17,06,19,16.70
2012,08,17,06,20,16.70
2012,08,17,06,21,16.70
2012,08,17,06,22,16.70
2012,08,17,06,23,16.70
2012,08,17,06,24,16.70
2012,08,17,06,25,16.70
2012,08,17,06,26,16.70
2012,08,17,06,27,16.70
2012,08,17,06,28,16.70
2012,08,17,06,29,16.70
2012,08,17,06,30,16.70
2012,08,17,06,31,16.70
2012,08,17,06,32,16.70
2012,08,17,06,33,16.70
2012,08,17,06,34,16.70
2012,08,17,06,35,16.60
2012,08,17,06,36,16.60
2012,08,17,06,37,16.60
2012,08,17,06,38,16.60
2012,08,17,06,39,16.60
2012,08,17,06,40,16.70
2012,08,17,06,41,16.70
2012,08,17,06,42,16.70
2012,08,17,06,43,16.70
2012,08,17,06,44,16.70
2012,08,17,06,45,16.70
2012,08,17,06,46,16.70
2012,08,17,06,47,16.70
2012,08,17,06,48,16.80
2012,08,17,06,49,16.80
2012,08,17,06,50,16.80
2012,08,17,06,51,16.80
2012,08,17,06,52,16.80
2012,08,17,06,53,16.80
2012,08,17,06,54,16.80
2012,08,17,06,55,16.90
2012,08,17,06,56,16.90
2012,08,17,06,57,16.90
2012,08,17,06,58,16.90
2012,08,17,06,59,16.90
2012,08,17,07,00,16.90
2012,08,17,07,01,16.90
2012,08,17,07,02,16.90
2012,08,17,07,03,16.90
2012,08,17,07,04,16.90
2012,08,17,07,05,16.90
2012,08,17,07,06,16.90
2012,08,17,07,07,16.90
2012,08,17,07,08,17.00
2012,08,17,07,09,17.00
2012,08,17,07,10,17.00
2012,08,17,07,11,17.00
2012,08,17,07,12,17.00
2012,08,17,07,13,17.10
2012,08,17,07,14,17.10
2012,08,17,07,15,17.10
2012,08,17,07,16,17.00
2012,08,17,07,17,17.00
2012,08,17,07,18,17.00
2012,08,17,07,19,16.90
2012,08,17,07,20,16.90
2012,08,17,07,21,16.90
2012,08,17,07,22,16.90
2012,08,17,07,23,16.90
2012,08,17,07,24,16.90
2012,08,17,07,25,16.90
2012,08,17,07,26,16.90
2012,08,17,07,27,17.00
2012,08,17,07,28,17.00
2012,08,17,07,29,17.10
2012,08,17,07,30,17.10
2012,08,17,07,31,17.10
2012,08,17,07,32,17.20
2012,08,17,07,33,17.20
2012,08,17,07,34,17.20
2012,08,17,07,35,17.20
2012,08,17,07,36,17.20
2012,08,17,07,37,17.30
2012,08,17,07,38,17.30
2012,08,17,07,39,17.30
2012,08,17,07,40,17.30
2012,08,17,07,41,17.30
2012,08,17,07,42,17.40
2012,08,17,07,43,17.40
2012,08,17,07,44,17.40
2012,08,17,07,45,17.50
2012,08,17,07,46,17.50
2012,08,17,07,47,17.60
2012,08,17,07,48,17.60
2012,08,17,07,49,17.70
2012,08,17,07,50,17.70
2012,08,17,07,51,17.70
2012,08,17,07,52,17.80
2012,08,17,07,53,17.80
2012,08,17,07,54,17.90
2012,08,17,07,55,17.90
2012,08,17,07,56,18.00
2012,08,17,07,57,18.00
2012,08,17,07,58,18.10
2012,08,17,07,59,18.20
2012,08,17,08,00,18.20
2012,08,17,08,01,18.30
2012,08,17,08,02,18.30
2012,08,17,08,03,18.30
2012,08,17,08,04,18.40
2012,08,17,08,05,18.40
2012,08,17,08,06,18.50
2012,08,17,08,07,18.60
2012,08,17,08,08,18.60
2012,08,17,08,09,18.60
2012,08,17,08,10,18.70
2012,08,17,08,11,18.80
2012,08,17,08,12,18.90
2012,08,17,08,13,18.90
2012,08,17,08,14,19.00
2012,08,17,08,15,19.10
2012,08,17,08,16,19.10
2012,08,17,08,17,19.20
2012,08,17,08,18,19.20
2012,08,17,08,19,19.30
2012,08,17,08,20,19.40
2012,08,17,08,21,19.50
2012,08,17,08,22,19.60
2012,08,17,08,23,19.70
2012,08,17,08,24,19.80
2012,08,17,08,25,19.90
2012,08,17,08,26,20.10
2012,08,17,08,27,20.20
2012,08,17,08,28,20.30
2012,08,17,08,29,20.40
2012,08,17,08,30,20.50
2012,08,17,08,31,20.60
2012,08,17,08,32,20.70
2012,08,17,08,33,20.80
2012,08,17,08,34,20.90
2012,08,17,08,35,20.90
2012,08,17,08,36,21.00
2012,08,17,08,37,21.10
2012,08,17,08,38,21.20
2012,08,17,08,39,21.20
2012,08,17,08,40,21.30
2012,08,17,08,41,21.30
2012,08,17,08,42,21.40
2012,08,17,08,43,21.40
2012,08,17,08,44,21.50
2012,08,17,08,45,21.50
2012,08,17,08,46,21.50
2012,08,17,08,47,21.60
2012,08,17,08,48,21.60
2012,08,17,08,49,21.60
2012,08,17,08,50,21.70
2012,08,17,08,51,21.70
2012,08,17,08,52,21.80
2012,08,17,08,53,21.90
2012,08,17,08,54,22.00
2012,08,17,08,55,22.10
2012,08,17,08,56,22.20
2012,08,17,08,57,22.30
2012,08,17,08,58,22.40
2012,08,17,08,59,22.50
2012,08,17,09,00,22.60
2012,08,17,09,01,22.60
2012,08,17,09,02,22.70
2012,08,17,09,03,22.80
2012,08,17,09,04,22.90
2012,08,17,09,05,23.00
2012,08,17,09,06,23.00
2012,08,17,09,07,23.10
2012,08,17,09,08,23.20
2012,08,17,09,09,23.20
2012,08,17,09,10,23.30
2012,08,17,09,11,23.30
2012,08,17,09,12,23.30
2012,08,17,09,13,23.40
2012,08,17,09,14,23.40
2012,08,17,09,15,23.40
2012,08,17,09,16,23.50
2012,08,17,09,17,23.50
2012,08,17,09,18,23.60
2012,08,17,09,19,23.60
2012,08,17,09,20,23.70
2012,08,17,09,21,23.70
2012,08,17,09,22,23.70
2012,08,17,09,23,23.70
2012,08,17,09,24,23.70
2012,08,17,09,25,23.70
2012,08,17,09,26,23.70
2012,08,17,09,27,23.70
2012,08,17,09,28,23.70
2012,08,17,09,29,23.70
2012,08,17,09,30,23.70
2012,08,17,09,31,23.70
2012,08,17,09,32,23.80
2012,08,17,09,33,23.80
2012,08,17,09,34,23.80
2012,08,17,09,35,23.80
2012,08,17,09,36,23.90
2012,08,17,09,37,23.90
2012,08,17,09,38,24.00
2012,08,17,09,39,24.00
2012,08,17,09,40,24.00
2012,08,17,09,41,24.00
2012,08,17,09,42,24.00
2012,08,17,09,43,24.10
2012,08,17,09,44,24.10
2012,08,17,09,45,24.10
2012,08,17,09,46,24.10
2012,08,17,09,47,24.10
2012,08,17,09,48,24.10
2012,08,17,09,49,24.10
2012,08,17,09,50,24.20
2012,08,17,09,51,24.20
2012,08,17,09,52,24.20
2012,08,17,09,53,24.20
2012,08,17,09,54,24.20
2012,08,17,09,55,24.20
2012,08,17,09,56,24.20
2012,08,17,09,57,24.20
2012,08,17,09,58,24.30
2012,08,17,09,59,24.30
2012,08,17,10,00,24.40
2012,08,17,10,01,24.40
2012,08,17,10,02,24.40
2012,08,17,10,03,24.50
2012,08,17,10,04,24.50
2012,08,17,10,05,24.60
2012,08,17,10,06,24.70
2012,08,17,10,07,24.70
2012,08,17,10,08,24.70
2012,08,17,10,09,24.80
2012,08,17,10,10,24.80
2012,08,17,10,11,24.80
2012,08,17,10,12,24.90
2012,08,17,10,13,24.90
2012,08,17,10,14,25.00
2012,08,17,10,15,25.00
2012,08,17,10,16,25.10
2012,08,17,10,17,25.10
2012,08,17,10,18,25.20
2012,08,17,10,19,25.20
2012,08,17,10,20,25.20
2012,08,17,10,21,25.20
2012,08,17,10,22,25.20
2012,08,17,10,23,25.30
2012,08,17,10,24,25.30
2012,08,17,10,25,25.30
2012,08,17,10,26,25.30
2012,08,17,10,27,25.30
2012,08,17,10,28,25.40
2012,08,17,10,29,25.40
2012,08,17,10,30,25.40
2012,08,17,10,31,25.40
2012,08,17,10,32,25.50
2012,08,17,10,33,25.50
2012,08,17,10,34,25.60
2012,08,17,10,35,25.60
2012,08,17,10,36,25.70
2012,08,17,10,37,25.70
2012,08,17,10,38,25.70
2012,08,17,10,39,25.70
2012,08,17,10,40,25.70
2012,08,17,10,41,25.70
2012,08,17,10,42,25.70
2012,08,17,10,43,25.70
2012,08,17,10,44,25.70
2012,08,17,10,45,25.70
2012,08,17,10,46,25.70
2012,08,17,10,47,25.70
2012,08,17,10,48,25.70
2012,08,17,10,49,25.80
2012,08,17,10,50,25.80
2012,08,17,10,51,25.80
2012,08,17,10,52,25.90
2012,08,17,10,53,25.90
2012,08,17,10,54,26.00
2012,08,17,10,55,26.00
2012,08,17,10,56,26.00
2012,08,17,10,57,26.00
2012,08,17,10,58,25.90
2012,08,17,10,59,25.90
2012,08,17,11,00,25.90
2012,08,17,11,01,25.90
2012,08,17,11,02,25.90
2012,08,17,11,03,25.90
2012,08,17,11,04,25.90
2012,08,17,11,05,25.90
2012,08,17,11,06,25.90
2012,08,17,11,07,25.90
2012,08,17,11,08,26.00
2012,08,17,11,09,26.00
2012,08,17,11,10,26.10
2012,08,17,11,11,26.20
2012,08,17,11,12,26.20
2012,08,17,11,13,26.30
2012,08,17,11,14,26.30
2012,08,17,11,15,26.40
2012,08,17,11,16,26.40
2012,08,17,11,17,26.50
2012,08,17,11,18,26.50
2012,08,17,11,19,26.50
2012,08,17,11,20,26.60
2012,08,17,11,21,26.60
2012,08,17,11,22,26.60
2012,08,17,11,23,26.60
2012,08,17,11,24,26.60
2012,08,17,11,25,26.50
2012,08,17,11,26,26.50
2012,08,17,11,27,26.50
2012,08,17,11,28,26.50
2012,08,17,11,29,26.60
2012,08,17,11,30,26.60
2012,08,17,11,31,26.70
2012,08,17,11,32,26.70
2012,08,17,11,33,26.80
2012,08,17,11,34,26.80
2012,08,17,11,35,26.80
2012,08,17,11,36,26.90
2012,08,17,11,37,26.90
2012,08,17,11,38,27.00
2012,08,17,11,39,27.00
2012,08,17,11,40,27.10
2012,08,17,11,41,27.10
2012,08,17,11,42,27.20
2012,08,17,11,43,27.20
2012,08,17,11,44,27.30
2012,08,17,11,45,27.20
2012,08,17,11,46,27.20
2012,08,17,11,47,27.10
2012,08,17,11,48,27.00
2012,08,17,11,49,26.80
2012,08,17,11,50,26.60
2012,08,17,11,51,26.50
2012,08,17,11,52,26.30
2012,08,17,11,53,26.20
2012,08,17,11,54,26.10
2012,08,17,11,55,25.90
2012,08,17,11,56,25.80
2012,08,17,11,57,25.80
2012,08,17,11,58,25.70
2012,08,17,11,59,25.70
2012,08,17,12,00,25.70
2012,08,17,12,01,25.70
2012,08,17,12,02,25.70
2012,08,17,12,03,25.70
2012,08,17,12,04,25.70
2012,08,17,12,05,25.70
2012,08,17,12,06,25.70
2012,08,17,12,07,25.70
2012,08,17,12,08,25.70
2012,08,17,12,09,25.70
2012,08,17,12,10,25.70
2012,08,17,12,11,25.70
2012,08,17,12,12,25.60
2012,08,17,12,13,25.70
2012,08,17,12,14,25.70
2012,08,17,12,15,25.80
2012,08,17,12,16,25.90
2012,08,17,12,17,25.90
2012,08,17,12,18,26.00
2012,08,17,12,19,26.10
2012,08,17,12,20,26.20
2012,08,17,12,21,26.30
2012,08,17,12,22,26.30
2012,08,17,12,23,26.30
2012,08,17,12,24,26.30
2012,08,17,12,25,26.40
2012,08,17,12,26,26.40
2012,08,17,12,27,26.40
2012,08,17,12,28,26.50
2012,08,17,12,29,26.50
2012,08,17,12,30,26.40
2012,08,17,12,31,26.40
2012,08,17,12,32,26.30
2012,08,17,12,33,26.20
2012,08,17,12,34,26.10
2012,08,17,12,35,26.10
2012,08,17,12,36,26.00
2012,08,17,12,37,26.00
2012,08,17,12,38,25.90
2012,08,17,12,39,25.90
2012,08,17,12,40,25.90
2012,08,17,12,41,25.80
2012,08,17,12,42,25.80
2012,08,17,12,43,25.80
2012,08,17,12,44,25.80
2012,08,17,12,45,25.80
2012,08,17,12,46,25.80
2012,08,17,12,47,25.70
2012,08,17,12,48,25.70
2012,08,17,12,49,25.60
2012,08,17,12,50,25.60
2012,08,17,12,51,25.60
2012,08,17,12,52,25.60
2012,08,17,12,53,25.60
2012,08,17,12,54,25.70
2012,08,17,12,55,25.70
2012,08,17,12,56,25.80
2012,08,17,12,57,25.80
2012,08,17,12,58,25.80
2012,08,17,12,59,25.80
2012,08,17,13,00,25.80
2012,08,17,13,01,25.80
2012,08,17,13,02,25.70
2012,08,17,13,03,25.60
2012,08,17,13,04,25.40
2012,08,17,13,05,25.40
2012,08,17,13,06,25.30
2012,08,17,13,07,25.20
2012,08,17,13,08,25.20
2012,08,17,13,09,25.20
2012,08,17,13,10,25.30
2012,08,17,13,11,25.30
2012,08,17,13,12,25.30
2012,08,17,13,13,25.40
2012,08,17,13,14,25.40
2012,08,17,13,15,25.40
2012,08,17,13,16,25.40
2012,08,17,13,17,25.50
2012,08,17,13,18,25.50
2012,08,17,13,19,25.60
2012,08,17,13,20,25.60
2012,08,17,13,21,25.60
2012,08,17,13,22,25.70
2012,08,17,13,23,25.70
2012,08,17,13,24,25.70
2012,08,17,13,25,25.70
2012,08,17,13,26,25.70
2012,08,17,13,27,25.80
2012,08,17,13,28,25.80
2012,08,17,13,29,25.90
2012,08,17,13,30,26.00
2012,08,17,13,31,26.10
2012,08,17,13,32,26.20
2012,08,17,13,33,26.20
2012,08,17,13,34,26.30
2012,08,17,13,35,26.40
2012,08,17,13,36,26.40
2012,08,17,13,37,26.50
2012,08,17,13,38,26.50
2012,08,17,13,39,26.60
2012,08,17,13,40,26.60
2012,08,17,13,41,26.60
2012,08,17,13,42,26.60
2012,08,17,13,43,26.60
2012,08,17,13,44,26.60
2012,08,17,13,45,26.60
2012,08,17,13,46,26.50
2012,08,17,13,47,26.50
2012,08,17,13,48,26.40
2012,08,17,13,49,26.30
2012,08,17,13,50,26.30
2012,08,17,13,51,26.30
2012,08,17,13,52,26.20
2012,08,17,13,53,26.10
2012,08,17,13,54,26.10
2012,08,17,13,55,26.10
2012,08,17,13,56,26.10
2012,08,17,13,57,26.00
2012,08,17,13,58,26.00
2012,08,17,13,59,26.00
2012,08,17,14,00,25.90
2012,08,17,14,01,25.90
2012,08,17,14,02,25.90
2012,08,17,14,03,25.90
2012,08,17,14,04,25.90
2012,08,17,14,05,25.90
2012,08,17,14,06,25.90
2012,08,17,14,07,25.90
2012,08,17,14,08,25.80
2012,08,17,14,09,25.80
2012,08,17,14,10,25.80
2012,08,17,14,11,25.80
2012,08,17,14,12,25.90
2012,08,17,14,13,26.00
2012,08,17,14,14,26.00
2012,08,17,14,15,26.00
2012,08,17,14,16,26.00
2012,08,17,14,17,26.00
2012,08,17,14,18,25.90
2012,08,17,14,19,25.90
2012,08,17,14,20,25.80
2012,08,17,14,21,25.70
2012,08,17,14,22,25.60
2012,08,17,14,23,25.50
2012,08,17,14,24,25.40
2012,08,17,14,25,25.30
2012,08,17,14,26,25.30
2012,08,17,14,27,25.30
2012,08,17,14,28,25.40
2012,08,17,14,29,25.40
2012,08,17,14,30,25.40
2012,08,17,14,31,25.50
2012,08,17,14,32,25.50
2012,08,17,14,33,25.60
2012,08,17,14,34,25.50
2012,08,17,14,35,25.50
2012,08,17,14,36,25.40
2012,08,17,14,37,25.40
2012,08,17,14,38,25.40
2012,08,17,14,39,25.40
2012,08,17,14,40,25.40
2012,08,17,14,41,25.30
2012,08,17,14,42,25.20
2012,08,17,14,43,25.10
2012,08,17,14,44,25.10
2012,08,17,14,45,25.00
2012,08,17,14,46,25.00
2012,08,17,14,47,25.00
2012,08,17,14,48,25.00
2012,08,17,14,49,25.00
2012,08,17,14,50,25.10
2012,08,17,14,51,25.00
2012,08,17,14,52,25.00
2012,08,17,14,53,25.00
2012,08,17,14,54,24.90
2012,08,17,14,55,25.00
2012,08,17,14,56,25.00
2012,08,17,14,57,25.00
2012,08,17,14,58,25.10
2012,08,17,14,59,25.10
2012,08,17,15,00,25.10
2012,08,17,15,01,25.20
2012,08,17,15,02,25.20
2012,08,17,15,03,25.20
2012,08,17,15,04,25.30
2012,08,17,15,05,25.30
2012,08,17,15,06,25.40
2012,08,17,15,07,25.40
2012,08,17,15,08,25.40
2012,08,17,15,09,25.40
2012,08,17,15,10,25.50
2012,08,17,15,11,25.50
2012,08,17,15,12,25.60
2012,08,17,15,13,25.60
2012,08,17,15,14,25.60
2012,08,17,15,15,25.60
2012,08,17,15,16,25.50
2012,08,17,15,17,25.50
2012,08,17,15,18,25.40
2012,08,17,15,19,25.40
2012,08,17,15,20,25.50
2012,08,17,15,21,25.60
2012,08,17,15,22,25.60
2012,08,17,15,23,25.60
2012,08,17,15,24,25.50
2012,08,17,15,25,25.50
2012,08,17,15,26,25.50
2012,08,17,15,27,25.50
2012,08,17,15,28,25.50
2012,08,17,15,29,25.50
2012,08,17,15,30,25.60
2012,08,17,15,31,25.60
2012,08,17,15,32,25.60
2012,08,17,15,33,25.60
2012,08,17,15,34,25.60
2012,08,17,15,35,25.60
2012,08,17,15,36,25.60
2012,08,17,15,37,25.70
2012,08,17,15,38,25.70
2012,08,17,15,39,25.80
2012,08,17,15,40,25.80
2012,08,17,15,41,25.90
2012,08,17,15,42,25.90
2012,08,17,15,43,26.00
2012,08,17,15,44,26.00
2012,08,17,15,45,26.10
2012,08,17,15,46,26.10
2012,08,17,15,47,26.20
2012,08,17,15,48,26.20
2012,08,17,15,49,26.30
2012,08,17,15,50,26.30
2012,08,17,15,51,26.30
2012,08,17,15,52,26.40
2012,08,17,15,53,26.40
2012,08,17,15,54,26.50
2012,08,17,15,55,26.50
2012,08,17,15,56,26.60
2012,08,17,15,57,26.60
2012,08,17,15,58,26.60
2012,08,17,15,59,26.60
2012,08,17,16,00,26.50
2012,08,17,16,01,26.50
2012,08,17,16,02,26.40
2012,08,17,16,03,26.50
2012,08,17,16,04,26.50
2012,08,17,16,05,26.50
2012,08,17,16,06,26.60
2012,08,17,16,07,26.60
2012,08,17,16,08,26.60
2012,08,17,16,09,26.60
2012,08,17,16,10,26.60
2012,08,17,16,11,26.70
2012,08,17,16,12,26.70
2012,08,17,16,13,26.70
2012,08,17,16,14,26.70
2012,08,17,16,15,26.70
2012,08,17,16,16,26.70
2012,08,17,16,17,26.70
2012,08,17,16,18,26.70
2012,08,17,16,19,26.70
2012,08,17,16,20,26.80
2012,08,17,16,21,26.80
2012,08,17,16,22,26.80
2012,08,17,16,23,26.70
2012,08,17,16,24,26.70
2012,08,17,16,25,26.80
2012,08,17,16,26,26.80
2012,08,17,16,27,26.80
2012,08,17,16,28,26.70
2012,08,17,16,29,26.70
2012,08,17,16,30,26.70
2012,08,17,16,31,26.70
2012,08,17,16,32,26.80
2012,08,17,16,33,26.80
2012,08,17,16,34,26.80
2012,08,17,16,35,26.80
2012,08,17,16,36,26.80
2012,08,17,16,37,26.80
2012,08,17,16,38,26.80
2012,08,17,16,39,26.90
2012,08,17,16,40,26.90
2012,08,17,16,41,26.90
2012,08,17,16,42,26.90
2012,08,17,16,43,26.90
2012,08,17,16,44,27.00
2012,08,17,16,45,27.00
2012,08,17,16,46,27.00
2012,08,17,16,47,27.00
2012,08,17,16,48,26.90
2012,08,17,16,49,26.80
2012,08,17,16,50,26.80
2012,08,17,16,51,26.80
2012,08,17,16,52,26.80
2012,08,17,16,53,26.80
2012,08,17,16,54,26.70
2012,08,17,16,55,26.70
2012,08,17,16,56,26.70
2012,08,17,16,57,26.60
2012,08,17,16,58,26.70
2012,08,17,16,59,26.70
2012,08,17,17,00,26.70
2012,08,17,17,01,26.70
2012,08,17,17,02,26.70
2012,08,17,17,03,26.70
2012,08,17,17,04,26.70
2012,08,17,17,05,26.70
2012,08,17,17,06,26.60
2012,08,17,17,07,26.60
2012,08,17,17,08,26.60
2012,08,17,17,09,26.50
2012,08,17,17,10,26.50
2012,08,17,17,11,26.60
2012,08,17,17,12,26.60
2012,08,17,17,13,26.60
2012,08,17,17,14,26.60
2012,08,17,17,15,26.50
2012,08,17,17,16,26.50
2012,08,17,17,17,26.60
2012,08,17,17,18,26.60
2012,08,17,17,19,26.60